Bookmark and Share
Track history (hours):
 

Pearl Of Scandinavia

Last reported at 2014-Apr-23 12:33 UTC. Time now 2014-Apr-23 12:57 UTC.
Position N 59°54' E 010°45'.

Length 176.4 m; beam 34 m; draft 6.215 m.

Type: Ship. MMSI: 219945000.

NotesDate/timePositionNaut miles runAvg speedWind from/ knotsBaromVisibWave heightAir tempDewpointWater temp
2014-Apr-23 12:33N 59°54' E 010°45'0 0.0
2014-Apr-23 11:33N 59°54' E 010°45'0 0.0
2014-Apr-23 10:33N 59°54' E 010°45'0 0.0
2014-Apr-23 09:33N 59°54' E 010°45'0 0.0
2014-Apr-23 08:09N 59°54' E 010°45'0 0.5
2014-Apr-23 07:33N 59°54' E 010°44'3413.5
2014-Apr-23 05:04N 59°21' E 010°35'7516.0
2014-Apr-23 00:23N 58°07' E 011°06'1315.9
2014-Apr-22 23:33N 57°55' E 011°14'1616.1
2014-Apr-22 22:33N 57°40' E 011°23'1615.9
2014-Apr-22 21:33N 57°24' E 011°32'1616.1
2014-Apr-22 20:32N 57°09' E 011°41'1715.9
2014-Apr-22 19:29N 56°53' E 011°51'1515.9
2014-Apr-22 18:32N 56°41' E 012°06'1616.4
2014-Apr-22 17:33N 56°26' E 012°18'1716.9
2014-Apr-22 16:33N 56°10' E 012°30'1716.6
2014-Apr-22 15:33N 55°56' E 012°44'1414.0
2014-Apr-22 14:33N 55°42' E 012°36'0 0.3
2014-Apr-22 13:31N 55°42' E 012°36'0 0.0
2014-Apr-22 12:31N 55°42' E 012°36'0 0.0
2014-Apr-22 11:31N 55°42' E 012°36'0 0.0
2014-Apr-22 10:31N 55°42' E 012°36'0 0.0
2014-Apr-22 09:31N 55°42' E 012°36'0 0.0
2014-Apr-22 08:31N 55°42' E 012°36'0 0.4
2014-Apr-22 07:33N 55°42' E 012°36'1111.5
2014-Apr-22 06:33N 55°54' E 012°40'1413.5
2014-Apr-22 05:34N 56°06' E 012°32'1414.5
2014-Apr-22 04:34N 56°20' E 012°22'1515.3
2014-Apr-22 03:33N 56°35' E 012°16'1616.0
2014-Apr-22 02:34N 56°50' E 012°10'1514.8
2014-Apr-22 01:33N 57°04' E 011°60'1515.2
2014-Apr-22 00:33N 57°18' E 011°47'1515.3
2014-Apr-21 23:33N 57°31' E 011°32'1616.4
2014-Apr-21 22:33N 57°46' E 011°20'1716.7
2014-Apr-21 21:33N 58°02' E 011°10'1716.4
2014-Apr-21 20:31N 58°18' E 011°01'5517.1
2014-Apr-21 17:19N 59°11' E 010°38'2117.1
2014-Apr-21 16:04N 59°33' E 010°37'2114.0
2014-Apr-21 14:33N 59°54' E 010°43'1 0.6
2014-Apr-21 13:27N 59°54' E 010°45'0 0.0
2014-Apr-21 12:27N 59°54' E 010°45'0 0.0
2014-Apr-21 11:27N 59°54' E 010°45'0 0.0
2014-Apr-21 10:30N 59°54' E 010°45'0 0.0
2014-Apr-21 09:27N 59°54' E 010°45'0 0.0
2014-Apr-21 08:33N 59°54' E 010°45'1 0.5
2014-Apr-21 07:33N 59°54' E 010°44'4314.1
2014-Apr-21 04:30N 59°11' E 010°39'1615.2
2014-Apr-21 03:28N 58°55' E 010°44'4815.7
2014-Apr-21 00:26N 58°09' E 011°05'1415.8
2014-Apr-20 23:33N 57°56' E 011°13'1616.1
2014-Apr-20 22:33N 57°41' E 011°22'1615.9
2014-Apr-20 21:33N 57°26' E 011°31'6315.7
2014-Apr-20 17:33N 56°28' E 012°16'1616.2
2014-Apr-20 16:33N 56°13' E 012°28'1717.3
2014-Apr-20 15:33N 55°58' E 012°43'1515.2
2014-Apr-20 14:34N 55°43' E 012°37'1 1.0
2014-Apr-20 13:31N 55°42' E 012°36'0 0.0
2014-Apr-20 12:28N 55°42' E 012°36'0 0.0
2014-Apr-20 11:31N 55°42' E 012°36'0 0.0
2014-Apr-20 10:28N 55°42' E 012°36'0 0.0
2014-Apr-20 09:31N 55°42' E 012°36'0 0.0
2014-Apr-20 08:28N 55°42' E 012°36'0 0.2
2014-Apr-20 07:33N 55°42' E 012°36'1111.3
2014-Apr-20 06:33N 55°53' E 012°40'1313.5
2014-Apr-20 05:33N 56°06' E 012°33'2315.5
2014-Apr-20 04:04N 56°28' E 012°19'816.1
2014-Apr-20 03:33N 56°36' E 012°16'1616.3
2014-Apr-20 02:33N 56°52' E 012°09'1615.9
2014-Apr-20 01:33N 57°07' E 011°58'1615.9
2014-Apr-20 00:33N 57°21' E 011°44'1616.1
2014-Apr-19 23:33N 57°35' E 011°29'1615.6
2014-Apr-19 22:33N 57°49' E 011°17'1616.4
2014-Apr-19 21:33N 58°05' E 011°08'1716.4
2014-Apr-19 20:32N 58°21' E 010°59'5216.9
2014-Apr-19 17:26N 59°12' E 010°38'4214.7
2014-Apr-19 14:33N 59°54' E 010°44'0 0.4
2014-Apr-19 13:22N 59°54' E 010°45'0 0.0
2014-Apr-19 12:22N 59°54' E 010°45'0 0.0
2014-Apr-19 11:22N 59°54' E 010°45'0 0.0
2014-Apr-19 10:28N 59°54' E 010°45'0 0.0
2014-Apr-19 09:28N 59°54' E 010°45'0 0.0
2014-Apr-19 08:13N 59°54' E 010°45'0 0.2
2014-Apr-19 07:34N 59°54' E 010°45'2813.3
2014-Apr-19 05:26N 59°26' E 010°34'1816.1
2014-Apr-19 04:18N 59°08' E 010°40'6216.1
2014-Apr-19 00:28N 58°08' E 011°06'1516.8
2014-Apr-18 23:33N 57°54' E 011°15'1616.0
2014-Apr-18 22:33N 57°38' E 011°24'1616.2
2014-Apr-18 21:33N 57°23' E 011°33'1615.9
2014-Apr-18 20:33N 57°08' E 011°42'1715.9
2014-Apr-18 19:31N 56°53' E 011°54'1515.8
2014-Apr-18 18:33N 56°39' E 012°07'1615.6
2014-Apr-18 17:33N 56°25' E 012°19'1616.1
2014-Apr-18 16:33N 56°10' E 012°30'1616.0
2014-Apr-18 15:33N 55°56' E 012°43'1414.2
2014-Apr-18 14:34N 55°42' E 012°36'0 0.4
2014-Apr-18 13:32N 55°42' E 012°36'0 0.0
2014-Apr-18 12:32N 55°42' E 012°36'0 0.0
2014-Apr-18 11:32N 55°42' E 012°36'0 0.0
2014-Apr-18 10:32N 55°42' E 012°36'0 0.0
2014-Apr-18 09:32N 55°42' E 012°36'0 0.0
2014-Apr-18 08:32N 55°42' E 012°36'0 0.3
2014-Apr-18 07:34N 55°42' E 012°36'1111.3
2014-Apr-18 06:33N 55°54' E 012°39'1413.5
2014-Apr-18 05:33N 56°07' E 012°32'1515.3
2014-Apr-18 04:33N 56°21' E 012°22'1915.8
2014-Apr-18 03:20N 56°39' E 012°14'1317.0
2014-Apr-18 02:33N 56°52' E 012°07'1717.0
2014-Apr-18 01:33N 57°08' E 011°57'1717.5
2014-Apr-18 00:33N 57°23' E 011°40'1717.2
2014-Apr-17 23:33N 57°39' E 011°26'1817.8
2014-Apr-17 22:33N 57°55' E 011°14'1717.4
2014-Apr-17 21:33N 58°12' E 011°04'7016.5
2014-Apr-17 17:21N 59°20' E 010°35'3512.4
2014-Apr-17 14:33N 59°54' E 010°45'0 0.0
2014-Apr-17 13:23N 59°54' E 010°45'0 0.0
2014-Apr-17 12:29N 59°54' E 010°45'0 0.0
2014-Apr-17 11:29N 59°54' E 010°45'0 0.0
2014-Apr-17 10:29N 59°54' E 010°45'0 0.0
2014-Apr-17 09:32N 59°54' E 010°45'0 0.0
2014-Apr-17 08:32N 59°54' E 010°45'0 0.1
2014-Apr-17 07:33N 59°54' E 010°45'11115.2
2014-Apr-17 00:15N 58°04' E 011°08'1116.1
2014-Apr-16 23:34N 57°53' E 011°15'1616.3
2014-Apr-16 22:34N 57°38' E 011°25'1616.3
2014-Apr-16 21:34N 57°22' E 011°33'1616.2
2014-Apr-16 20:34N 57°07' E 011°42'1615.8
2014-Apr-16 19:33N 56°52' E 011°53'1615.7
2014-Apr-16 18:33N 56°39' E 012°08'1616.1
2014-Apr-16 17:33N 56°24' E 012°20'1716.6
2014-Apr-16 16:33N 56°09' E 012°32'1716.9
2014-Apr-16 15:33N 55°53' E 012°44'1212.1
2014-Apr-16 14:33N 55°42' E 012°36'0 0.0
2014-Apr-16 13:33N 55°42' E 012°36'0 0.0
2014-Apr-16 12:33N 55°42' E 012°36'0 0.0
2014-Apr-16 11:33N 55°42' E 012°36'0 0.0
2014-Apr-16 10:33N 55°42' E 012°36'0 0.0
2014-Apr-16 09:33N 55°42' E 012°36'0 0.0
2014-Apr-16 08:33N 55°42' E 012°36'0 0.2
2014-Apr-16 07:33N 55°42' E 012°36'1110.7
2014-Apr-16 06:33N 55°53' E 012°40'1414.0
2014-Apr-16 05:33N 56°06' E 012°33'1515.4
2014-Apr-16 04:33N 56°20' E 012°22'1515.5
2014-Apr-16 03:33N 56°35' E 012°14'1615.7
2014-Apr-16 02:33N 56°50' E 012°06'1615.7
2014-Apr-16 01:33N 57°05' E 011°57'1615.6
2014-Apr-16 00:33N 57°19' E 011°45'1616.2
2014-Apr-15 23:33N 57°33' E 011°30'1716.6
2014-Apr-15 22:33N 57°49' E 011°17'1716.6
2014-Apr-15 21:33N 58°05' E 011°08'1716.6
2014-Apr-15 20:32N 58°21' E 010°59'5517.3
2014-Apr-15 17:23N 59°14' E 010°37'1517.8
2014-Apr-15 16:31N 59°30' E 010°34'2512.8
2014-Apr-15 14:33N 59°54' E 010°45'0 0.0
2014-Apr-15 12:30N 59°54' E 010°45'0 0.0
2014-Apr-15 11:33N 59°54' E 010°45'0 0.0
2014-Apr-15 10:33N 59°54' E 010°45'0 0.0
2014-Apr-15 09:33N 59°54' E 010°45'0 0.0
2014-Apr-15 08:33N 59°54' E 010°45'0 0.0
2014-Apr-15 07:33N 59°54' E 010°45'0 0.2
2014-Apr-15 06:34N 59°54' E 010°44'10715.3
2014-Apr-14 23:32N 58°07' E 011°06'1616.8
2014-Apr-14 22:34N 57°52' E 011°16'1716.6
2014-Apr-14 21:34N 57°36' E 011°25'1716.5
2014-Apr-14 20:34N 57°20' E 011°34'1716.6
2014-Apr-14 19:34N 57°04' E 011°43'1716.5
2014-Apr-14 18:34N 56°49' E 011°55'1616.2
2014-Apr-14 17:33N 56°35' E 012°11'1716.3
2014-Apr-14 16:33N 56°20' E 012°23'1616.3
2014-Apr-14 15:34N 56°06' E 012°35'1514.9
2014-Apr-14 14:34N 55°52' E 012°45'1110.9
2014-Apr-14 13:34N 55°42' E 012°36'0 0.0
2014-Apr-14 11:32N 55°42' E 012°36'0 0.0
2014-Apr-14 10:32N 55°42' E 012°36'0 0.0
2014-Apr-14 09:32N 55°42' E 012°36'0 0.0
2014-Apr-14 08:32N 55°42' E 012°36'0 0.0
2014-Apr-14 07:32N 55°42' E 012°36'0 0.3
2014-Apr-14 06:34N 55°42' E 012°36'1111.4
2014-Apr-14 05:33N 55°54' E 012°39'13218.9
2014-Apr-13 22:34N 57°57' E 011°13'8416.2
2014-Apr-13 17:21N 59°19' E 010°35'3612.7
2014-Apr-13 14:33N 59°54' E 010°45'0 0.0
2014-Apr-13 13:31N 59°54' E 010°45'  

Dump ship's entire track history

sailing weather and tide predictions

Pearl Of Scandinavia — OWFU2 — position and weather